sat.trackr.live / text

‹ back to catalog

STARLINK-35726

NORAD 66280 · 2025-247R

PAYLOAD ACTIVE UNKNOWN

§ Identity

Operator
Country
US
Launch date
2025-10-31
Launch site
AFWTR
Launch vehicle
Mass (kg)
RCS (m²)

Purposes: comms

External: N2YO · Heavens-Above · Gunter

§ Orbital elements

Epoch: 2026-09-20T13:03:20.101824Z

Period
93.85 min
Inclination
53.1623°
Eccentricity
0.0001001
Mean motion
15.34408819 rev/d
Perigee alt
462.0 km
Apogee alt
463.4 km
Semi-major
6,840.8 km
B*
8.2897e-4
RAAN
1.6199°
Arg perigee
46.7151°
Mean anomaly
313.3935°
Rev number
5,093

§ Raw data

STARLINK-357261 66280U 25247R   26263.54398266  .00027743  00000+0  82897-3 0  99932 66280  53.1623   1.6199 0001001  46.7151 313.3935 15.34408819 50933

JSON: /api/v1/satellites/66280 · /tle

For live sub-satellite position, see the globe view (requires WebGL).

§ Visibility from observer

Set your observer location to see the next 7 days of passes ≥ 10°. The values pass through the URL so the page stays shareable.

No JS? Fill the form by hand. The geolocation button needs JavaScript.